GFSSW_925_temp_285.txt.gz
Temp
13 13 13 12 12 12 12 11 11 11 11 11 11 11 12 13 13 13 11 12 12 12 13 15 15 16 15 14 15 13 9 9 11 12 12 12 11 11 11 10 9 8 7 8 8
13 13 13 13 12 12 12 12 12 11 11 11 11 12 12 12 12 12 13 12 12 13 14 13 12 15 13 15 13 10 8 12 13 13 12 12 11 10 9 8 7 7 8 7 7
13 13 13 13 12 12 12 12 12 12 12 11 12 12 12 13 12 13 13 12 14 14 13 13 14 15 15 14 13 12 11 14 13 13 13 12 10 10 7 7 6 5 5 6 7
13 13 12 12 12 12 12 12 12 12 12 12 12 12 13 13 15 13 13 13 14 14 14 15 12 12 13 13 14 12 13 13 13 14 13 11 10 10 8 7 6 6 6 6 6
13 13 13 13 12 12 12 12 12 12 12 12 13 12 13 13 12 13 12 13 13 14 14 12 11 11 11 12 12 12 12 13 13 13 11 12 9 9 7 7 7 7 6 5 6
12 12 12 13 13 12 12 12 12 12 12 12 12 13 12 14 13 13 12 13 13 13 13 13 12 12 13 12 12 12 12 12 12 13 12 10 9 8 6 6 6 6 5 4 4
13 13 12 13 13 13 12 12 12 12 12 13 13 12 13 13 13 12 13 13 13 13 13 13 13 12 12 12 13 13 11 11 12 13 11 10 8 7 6 7 6 5 4 4 3
12 12 12 12 14 13 13 13 13 12 12 13 13 13 13 13 13 12 13 13 13 13 13 14 14 12 13 12 12 13 10 8 12 12 11 11 8 6 6 6 5 5 3 3 3
12 12 12 12 14 13 13 13 13 13 13 13 13 13 13 13 13 12 12 11 12 14 14 14 14 13 10 8 7 7 7 8 10 12 11 10 7 8 8 6 5 4 2 2 2
12 12 12 12 14 14 13 13 13 13 13 13 14 14 13 12 12 11 11 11 11 12 13 13 10 8 6 7 5 7 7 8 9 10 11 10 6 7 7 6 4 3 3 1 1
12 12 12 13 13 13 14 13 12 13 13 12 12 13 12 12 12 10 10 10 12 13 12 13 7 6 8 9 10 9 8 8 9 11 10 8 6 7 7 5 3 2 2 1 0
11 12 12 13 13 13 12 10 7 7 9 13 12 11 11 10 11 10 10 12 12 12 12 10 9 9 10 9 8 8 8 7 8 10 10 8 6 5 7 4 4 2 1 1 0
11 11 11 12 12 12 10 8 7 8 8 12 12 11 11 11 9 8 8 9 11 12 9 8 9 10 10 9 7 7 8 7 7 9 10 7 5 3 7 6 5 4 2 0 -0
11 11 10 10 11 10 8 7 7 7 9 12 11 10 11 11 10 10 9 9 11 10 10 10 9 9 9 9 7 6 9 8 8 7 5 9 5 4 5 4 4 4 2 0 -0
11 10 9 10 9 9 6 7 7 6 14 12 11 11 11 10 9 10 10 10 8 9 9 10 9 8 7 8 8 7 8 7 8 7 9 7 3 1 3 3 2 3 2 1 -1
10 9 8 9 8 6 7 7 7 11 14 11 11 11 11 11 10 10 8 8 8 9 10 10 10 9 9 9 9 8 6 8 9 6 4 5 4 2 -1 -1 1 2 1 0 -1
8 6 8 8 7 6 6 7 11 13 12 12 10 10 10 9 10 9 4 3 3 7 4 9 9 9 8 6 7 6 2 -2 2 2 3 5 5 2 1 1 -1 -0 -0 -0 -1
5 6 6 6 6 6 7 9 12 12 11 8 10 10 11 8 8 9 7 5 4 3 2 6 8 7 8 7 6 6 3 -1 2 1 4 8 2 1 3 2 -1 0 -1 -0 -1
5 4 4 4 5 6 7 11 12 11 9 9 9 10 9 8 7 8 7 5 4 3 6 3 8 8 8 8 6 5 1 3 -1 -0 3 6 4 4 4 2 0 -0 -1 -1 -1
6 4 3 4 4 6 7 11 9 7 7 8 7 10 11 8 8 6 6 5 4 4 4 1 5 8 8 8 6 5 5 1 -1 -1 -1 4 3 1 1 -0 -0 -1 -2 -2 -2
7 6 2 4 5 6 9 9 6 4 6 6 7 7 9 8 8 7 6 4 5 4 4 2 1 5 6 3 4 3 -1 2 2 0 -2 2 2 -2 -3 -5 -4 -3 -3 -3 -3
6 7 2 3 6 5 7 6 5 4 3 4 4 8 9 8 7 6 6 5 5 5 3 3 -1 1 3 4 5 5 4 1 -1 -0 -3 -0 3 1 -3 -5 -7 -5 -3 -3 -4
4 3 2 2 7 6 3 3 3 3 3 4 6 7 7 8 7 7 4 4 5 5 2 2 -1 0 1 1 3 4 4 2 -2 -5 -5 -1 2 2 -1 -4 -5 -7 -5 -3 -4
4 5 2 2 3 6 4 4 4 2 3 5 6 7 7 7 6 5 3 4 4 4 5 3 -3 -0 3 1 -1 -1 -1 2 -0 -3 -5 -1 -1 0 -0 -2 -3 -6 -7 -5 -4
6 6 5 4 4 5 5 5 4 3 2 4 5 5 6 4 3 5 4 3 4 4 2 0 0 -3 2 3 2 1 -3 -3 -4 -1 -2 -2 -3 -2 -2 -4 -5 -9 -8 -4 -4
6 5 4 5 5 5 6 5 5 3 3 3 3 3 6 4 5 4 3 2 3 2 -1 -2 1 0 -1 3 3 2 3 1 -1 1 0 -1 -0 0 -2 -4 -5 -8 -8 -6 -5
4 4 7 5 5 6 6 6 5 3 3 4 3 5 5 4 3 2 2 2 2 0 -2 -3 -1 -2 0 2 -3 1 -3 -1 -0 -3 -1 0 -0 1 -1 -0 -4 -7 -9 -9 -7

GFSSW_925_temp_291.txt.gz
Temp
12 11 10 10 10 11 11 11 12 12 11 11 11 11 11 12 13 14 12 12 13 13 13 14 15 14 14 12 12 10 8 8 10 10 11 11 11 10 9 9 8 8 7 8 7
13 13 13 13 13 11 12 12 12 12 11 11 11 12 12 12 12 12 13 13 13 13 14 13 12 11 11 13 11 9 8 10 10 11 11 11 10 9 9 7 7 6 7 6 6
13 13 13 13 13 13 12 12 12 12 11 12 11 12 12 12 12 13 12 13 13 13 14 13 12 12 12 12 12 10 10 11 12 11 11 11 9 8 7 6 6 5 5 6 5
13 13 13 13 13 13 13 12 12 12 12 11 12 12 12 13 15 13 12 13 13 14 14 13 11 12 11 12 12 12 12 12 12 12 11 10 8 6 6 7 6 5 5 5 4
13 13 13 13 13 13 13 13 12 12 12 12 12 12 12 13 13 13 13 13 13 14 12 11 10 11 11 11 12 11 12 12 12 11 11 9 8 8 7 6 5 6 5 4 4
13 13 13 13 13 13 13 13 13 12 12 12 12 12 12 13 13 13 13 13 13 13 12 12 11 11 11 11 11 12 11 11 11 11 10 9 7 8 7 6 5 5 4 4 3
13 13 13 13 13 14 13 13 13 13 12 12 12 11 12 13 13 13 13 13 13 13 12 13 12 12 11 11 11 12 11 10 10 10 9 7 6 6 7 5 5 4 4 3 3
13 13 13 13 13 14 14 14 13 13 13 13 12 12 12 13 13 13 13 13 13 13 13 13 13 12 11 10 9 9 7 8 10 10 9 10 8 6 6 5 4 4 3 3 2
12 13 13 13 13 14 14 14 13 13 13 13 12 12 12 13 12 12 12 11 12 12 13 13 12 9 9 8 8 6 8 8 8 10 10 8 7 6 6 5 4 3 3 2 1
13 12 13 13 13 13 14 14 13 12 13 12 12 12 12 12 11 11 11 11 11 11 12 11 8 8 6 6 8 9 7 7 7 9 9 7 6 6 7 4 1 2 2 1 0
12 12 12 12 13 13 14 14 12 12 12 14 13 13 12 11 11 11 10 10 11 11 11 9 10 7 8 7 8 8 7 6 6 8 8 6 5 7 6 3 2 2 1 0 -0
12 12 12 12 12 12 12 9 7 7 10 12 12 12 11 11 11 10 10 11 12 11 10 10 10 9 8 8 8 7 7 7 7 8 8 6 5 3 5 3 1 1 1 -0 -0
12 12 11 11 12 11 10 8 8 8 8 11 12 12 11 11 10 9 9 9 11 11 10 10 10 9 9 8 7 7 7 6 7 6 7 6 4 1 3 3 4 3 2 0 -1
12 11 11 10 10 10 8 8 8 8 10 11 11 10 11 10 10 10 9 9 10 10 9 10 9 9 9 8 7 7 7 7 6 6 4 6 3 1 2 2 4 2 1 -0 -1
12 11 10 9 10 9 9 8 7 7 13 11 10 10 10 9 8 9 8 9 9 9 9 10 9 8 9 9 7 8 6 6 7 5 5 5 3 2 1 2 2 1 0 -1 -1
12 11 9 8 9 8 8 7 7 11 13 11 10 10 10 9 10 9 8 8 8 9 9 9 9 8 8 7 7 6 6 6 4 3 1 1 1 3 -2 -1 1 0 -1 -1 -2
11 9 8 9 7 7 7 7 11 12 12 11 10 10 9 7 9 8 5 4 6 8 7 8 8 8 7 7 7 5 3 -0 2 -1 0 1 3 1 -1 -1 -4 -3 -2 -2 -2
10 8 7 7 7 6 7 9 12 13 12 9 9 10 10 9 9 8 7 5 4 4 3 7 8 7 7 7 5 4 2 0 6 0 2 4 1 3 2 1 -4 -4 -4 -2 -2
6 5 5 5 6 6 7 11 12 12 10 9 8 8 9 8 8 8 7 5 4 3 6 4 8 7 7 5 5 5 1 2 -2 -2 -0 2 3 3 2 1 -0 -2 -3 -4 -3
7 5 3 4 5 6 7 11 10 9 7 8 10 8 10 8 8 7 7 5 4 4 3 2 4 7 7 6 5 5 3 1 -3 -1 -1 1 1 2 -1 -1 -1 -3 -4 -4 -4
7 6 3 4 5 6 8 9 8 6 6 7 9 8 8 8 8 7 7 5 5 4 3 1 2 5 6 3 3 3 -1 1 -0 -3 -3 -1 2 -5 -5 -4 -5 -5 -6 -6 -5
7 8 3 4 6 5 8 8 6 5 4 5 6 7 7 8 6 5 7 5 5 5 4 3 0 2 3 3 2 4 2 0 -1 -2 -6 -3 1 -2 -5 -6 -8 -7 -7 -7 -6
5 3 2 3 7 7 4 5 4 4 4 5 5 6 7 8 6 6 5 4 5 4 3 3 2 3 4 2 3 3 2 -2 -5 -8 -7 -3 2 -1 -3 -5 -6 -10 -8 -7 -6
4 5 3 3 3 6 5 6 5 3 4 3 4 6 7 7 6 4 4 4 4 4 5 4 -1 4 5 3 -0 -0 -2 0 -2 -3 -7 -3 -1 0 -0 -4 -5 -6 -9 -9 -8
6 6 5 4 4 5 5 6 5 5 3 3 3 5 6 3 4 5 3 3 3 5 2 2 4 0 2 3 2 1 -3 -5 -4 -3 -1 -3 -5 -1 -3 -6 -8 -11 -10 -8 -7
7 6 4 5 5 5 6 6 6 4 3 3 4 5 5 3 5 5 2 2 3 1 0 -0 3 1 1 2 2 2 2 -0 -3 -0 -2 -4 -2 -2 -6 -8 -8 -9 -10 -8 -8
5 5 6 5 5 6 6 7 7 4 3 4 4 3 5 5 3 1 1 1 2 1 -0 -0 1 1 2 0 -2 2 -3 -1 -2 -5 -2 -1 -0 -1 -2 -1 -6 -8 -11 -11 -9

GFSSW_925_temp_297.txt.gz
Temp
13 13 13 13 13 12 11 11 11 12 12 12 11 12 11 12 13 13 12 12 13 13 13 14 14 14 13 11 10 9 12 11 11 11 12 10 11 9 8 9 8 9 9 9 7
14 13 14 13 13 13 12 11 11 10 10 11 11 11 12 12 12 12 13 13 13 13 13 12 12 12 11 11 10 10 12 12 11 11 11 11 11 9 9 8 8 8 8 7 6
13 14 14 14 14 13 13 13 13 12 11 10 11 12 12 12 12 13 12 12 12 13 13 13 12 12 12 11 11 10 12 11 11 11 11 11 9 8 8 8 7 7 7 7 6
13 13 13 14 14 14 13 13 13 13 12 12 12 12 12 12 15 13 13 13 13 13 13 12 12 12 11 12 11 12 11 11 12 12 11 10 8 7 8 8 8 7 6 6 5
13 13 13 14 14 14 13 13 13 13 12 12 11 11 12 12 12 13 13 13 13 13 12 11 11 11 11 11 11 11 11 12 12 11 11 9 8 9 7 7 6 6 6 5 5
13 13 13 13 14 14 14 13 13 13 13 12 11 11 11 12 13 13 13 13 13 13 12 12 11 11 11 11 11 10 11 11 11 11 10 9 7 7 8 7 6 6 6 5 4
13 13 13 13 13 13 14 14 14 13 13 12 11 11 11 11 12 12 13 12 12 12 12 12 12 12 11 11 10 10 11 10 10 10 9 8 7 7 7 6 6 6 5 4 4
12 13 13 13 13 13 13 14 14 13 12 12 11 11 10 12 12 13 12 12 12 12 12 12 12 11 10 10 10 10 9 11 10 9 8 9 9 7 7 6 6 5 5 4 3
13 13 13 13 12 12 13 13 14 13 12 11 11 11 11 12 12 11 11 11 11 12 12 12 11 9 9 10 10 9 11 9 10 9 9 8 8 7 7 6 5 5 4 3 2
13 13 12 12 12 12 13 13 14 13 12 11 11 11 12 11 11 10 10 10 9 10 12 11 9 9 8 10 12 11 10 8 8 9 8 8 7 7 7 5 4 3 2 1 -0
13 13 12 12 12 12 12 13 11 11 11 12 11 12 12 11 10 10 9 10 10 10 10 9 10 10 10 9 8 8 8 8 8 8 7 7 6 6 6 6 4 4 2 0 -1
13 13 12 12 11 11 12 11 10 9 9 11 11 11 11 11 11 10 10 10 10 10 10 10 10 9 9 8 8 8 8 8 7 7 8 6 6 4 6 5 3 1 0 -0 -0
13 13 12 12 11 10 11 10 9 9 9 11 11 11 10 10 8 8 8 9 10 10 10 10 9 9 9 8 8 8 8 8 8 7 6 5 6 2 5 4 4 4 2 0 -1
13 12 12 12 10 9 8 8 9 8 10 11 10 10 10 9 9 9 8 8 9 10 10 10 8 9 9 9 8 8 7 7 6 6 7 5 7 4 3 2 4 4 1 -0 -1
11 12 12 12 11 7 8 7 8 8 14 11 10 10 9 9 9 8 8 8 9 9 10 10 9 9 9 8 7 8 6 6 6 6 5 5 4 5 2 2 3 2 1 -0 -1
13 12 12 9 8 7 7 7 7 11 11 11 10 10 9 8 9 9 8 8 7 9 9 8 8 8 8 7 7 6 6 6 4 4 3 1 3 7 2 0 2 1 -0 -1 -2
9 8 8 8 8 9 8 7 11 13 12 11 11 9 9 9 9 8 6 5 7 8 8 9 8 7 7 8 6 6 5 5 7 3 5 0 4 5 1 1 -3 -2 -2 -3 -2
8 8 6 6 6 6 7 9 12 12 12 9 9 9 10 9 8 8 7 7 5 4 5 10 11 7 7 6 6 5 4 4 9 6 5 3 3 6 2 1 -3 -5 -5 -2 -2
8 7 5 4 5 6 8 11 11 12 11 9 9 10 10 9 7 7 8 6 6 4 7 7 9 7 6 5 5 5 4 2 -1 -3 2 4 4 4 2 1 0 -2 -4 -4 -4
8 6 3 5 5 6 8 11 10 9 9 9 11 10 10 9 7 6 7 6 5 4 4 5 7 6 6 5 4 5 3 4 0 4 6 4 2 5 3 -0 -1 -3 -5 -5 -4
7 7 3 4 5 7 9 9 10 6 7 9 10 9 8 8 7 7 7 5 5 4 4 4 5 6 6 5 5 5 3 1 1 -1 2 4 6 -2 -3 -4 -5 -5 -6 -6 -6
6 6 4 4 6 5 7 7 6 6 5 6 7 8 8 6 6 6 7 6 5 5 4 4 4 6 6 3 3 3 3 2 4 1 -5 -2 4 -2 -3 -6 -8 -7 -7 -7 -6
5 4 3 4 8 7 6 6 5 5 5 5 7 6 5 6 7 6 6 4 5 4 4 4 3 6 6 4 3 3 2 -2 -4 -3 -3 1 6 -1 -3 -4 -6 -9 -7 -8 -7
5 6 3 3 3 6 6 7 7 4 5 5 5 5 4 5 3 5 5 4 4 5 6 5 2 5 8 7 2 1 0 -0 0 1 -4 -1 2 1 0 -3 -4 -6 -9 -8 -7
5 6 6 5 5 5 5 6 6 7 4 4 4 5 5 5 3 4 3 3 3 5 2 3 4 1 3 3 3 3 -0 -2 -1 -1 2 -1 -3 -1 -2 -5 -6 -11 -10 -8 -7
6 5 4 5 5 5 5 6 7 7 5 4 5 5 4 5 5 3 3 3 4 2 0 -0 4 2 2 3 3 3 3 1 -2 -1 -2 -5 -2 -3 -5 -8 -7 -9 -10 -8 -8
6 5 6 6 5 5 6 6 7 6 5 5 4 4 4 4 3 1 2 1 3 2 0 0 1 2 6 2 1 5 1 0 -1 -3 -2 1 2 -1 -2 -1 -5 -7 -11 -10 -9

GFSSW_925_temp_303.txt.gz
Temp
14 14 14 14 14 14 14 14 13 13 12 12 12 12 12 12 13 15 19 15 14 13 14 17 17 18 18 18 18 18 20 22 23 22 21 18 18 17 16 17 15 16 15 15 13
14 13 13 14 14 14 14 13 13 13 12 13 13 13 12 13 14 18 14 13 13 13 16 17 19 19 20 19 18 18 20 23 20 20 19 17 17 17 15 16 16 15 15 14 13
13 13 13 13 14 14 13 13 13 13 13 13 14 13 13 13 17 18 14 12 13 13 16 16 17 18 19 19 19 19 20 19 18 18 17 17 16 16 15 15 16 15 14 13 12
13 13 13 13 13 13 14 14 13 13 13 13 13 14 14 15 19 15 14 14 14 14 16 17 19 19 18 18 18 17 18 18 17 16 15 15 15 13 14 15 13 12 12 12 12
13 13 13 13 13 13 14 14 13 13 13 13 13 13 14 18 19 14 14 14 14 15 17 18 18 18 18 18 17 17 18 16 16 15 15 14 13 14 14 14 12 12 12 12 12
13 13 13 13 13 13 13 13 13 13 13 12 12 13 15 17 14 14 14 14 15 16 17 18 17 17 17 17 16 16 16 16 15 15 15 13 14 11 14 14 12 12 12 12 12
13 13 13 13 13 13 13 13 13 13 13 13 12 12 16 17 14 14 14 14 14 15 17 15 15 16 15 15 15 15 14 17 16 15 14 13 13 12 14 12 12 12 13 12 12
13 13 13 13 13 13 13 13 13 13 13 13 12 13 17 14 14 14 14 15 14 14 15 14 14 14 14 13 14 14 15 16 14 13 13 12 15 13 12 11 12 12 12 12 11
13 13 13 13 13 12 12 13 13 13 13 12 12 15 17 13 15 14 13 14 13 13 13 13 13 13 12 13 15 16 17 17 16 14 13 12 13 12 12 11 11 12 12 10 8
13 13 13 13 13 12 12 13 13 13 12 13 14 15 15 17 14 13 13 13 14 14 14 13 12 11 12 13 14 17 16 17 15 13 12 12 12 14 13 11 10 10 11 6 4
12 13 13 13 12 12 12 13 16 16 15 17 17 16 16 15 13 14 13 14 14 14 15 14 13 12 16 15 15 14 15 15 15 13 10 11 12 12 13 12 11 10 8 5 4
12 12 12 13 12 12 12 13 14 11 13 16 15 15 14 14 14 15 13 14 15 16 16 15 15 15 14 13 13 13 14 15 14 11 10 12 11 11 11 11 8 7 7 4 4
12 13 12 12 12 11 12 11 10 10 13 16 15 15 15 14 15 15 14 14 15 16 16 16 16 13 13 13 12 14 13 13 12 12 12 10 12 8 10 10 11 12 9 5 3
12 13 12 11 11 10 10 8 10 10 12 14 14 14 14 14 14 13 13 13 14 15 15 16 14 13 13 13 12 12 11 10 10 10 12 12 13 11 11 9 13 10 7 5 3
9 11 10 10 10 9 9 9 9 9 14 15 14 12 14 13 13 13 11 13 14 15 14 15 13 12 13 13 11 12 9 9 9 10 10 11 10 11 12 10 11 8 6 5 3
9 9 9 9 9 7 8 8 8 11 14 14 13 13 14 14 14 13 13 12 12 13 13 14 12 12 12 11 10 9 9 9 9 10 10 9 10 14 10 7 8 6 5 4 2
9 9 9 8 6 7 7 8 12 13 11 12 12 10 12 14 14 13 8 11 12 11 11 13 13 11 10 11 10 10 10 12 12 11 14 9 10 10 10 8 5 3 3 2 2
9 8 6 5 5 6 7 13 12 15 14 11 12 13 13 14 14 14 13 13 11 10 12 14 14 11 10 10 10 9 9 11 13 15 15 9 11 11 10 9 5 4 2 2 1
9 7 6 6 6 7 10 11 13 15 13 13 13 12 14 13 12 13 14 13 11 8 10 12 14 10 9 9 8 9 10 7 9 8 11 15 13 10 12 10 7 5 1 0 0
9 9 6 6 6 7 10 11 14 14 13 13 13 12 12 13 12 12 13 11 9 9 8 9 11 10 8 8 8 8 8 9 9 12 14 15 13 14 8 6 5 3 0 -1 -1
8 11 7 6 6 10 11 12 14 11 11 11 11 11 11 12 10 12 11 10 10 8 9 8 8 9 9 9 10 8 8 7 8 9 12 14 13 7 5 4 2 1 0 -1 -2
9 10 6 7 9 8 9 11 9 11 9 8 7 8 8 8 10 10 11 9 9 9 8 9 7 10 11 7 7 7 9 9 11 10 8 8 12 5 4 3 2 0 -0 -1 -1
10 7 6 6 9 9 10 9 8 9 9 7 7 6 6 8 10 10 10 8 8 8 7 7 9 11 10 6 6 7 8 6 6 6 10 11 13 8 7 5 3 1 -1 -1 -1
10 7 6 5 5 9 8 8 8 7 6 6 7 7 7 9 9 8 8 6 7 6 6 7 7 8 12 10 8 7 6 6 7 10 9 11 10 9 8 4 3 1 -1 -0 -1
9 7 9 7 7 6 6 7 8 8 5 6 7 7 8 8 7 7 7 4 6 6 5 6 7 8 9 10 8 8 7 4 4 9 9 7 5 8 5 2 0 -1 -1 -1 -1
8 7 8 8 8 6 6 7 7 7 6 8 7 8 7 7 8 8 6 6 7 6 4 3 8 8 9 8 7 7 8 7 4 6 7 7 7 7 4 3 2 0 -1 -1 -2
8 7 9 7 6 6 8 8 8 7 6 7 5 6 6 6 5 4 4 4 6 5 4 4 5 8 11 8 6 10 7 6 6 5 9 8 9 7 5 5 2 0 -1 -2 -3

GFSSW_925_temp_309.txt.gz
Temp
14 14 14 14 14 14 14 14 14 14 14 14 14 14 14 13 13 14 14 14 14 14 15 16 17 17 17 16 17 16 12 12 17 17 17 17 16 16 14 13 15 14 13 11 12
14 14 14 14 14 14 14 14 14 14 14 14 14 14 14 13 13 12 14 15 16 15 15 15 15 16 14 16 15 13 11 15 18 17 15 17 17 14 15 14 14 14 12 11 12
14 14 14 14 14 14 14 13 14 13 13 13 14 13 14 13 12 14 15 16 16 15 15 15 16 16 16 15 15 15 13 17 16 15 15 15 16 15 13 13 12 12 10 11 11
14 14 14 13 14 13 13 13 13 13 13 13 13 13 14 13 15 15 15 16 16 16 15 16 16 16 16 16 16 15 16 16 16 15 15 15 14 14 12 12 11 10 11 11 11
14 14 14 13 13 13 13 13 13 13 13 13 12 12 13 13 14 15 15 15 15 15 16 16 15 15 15 14 16 15 15 16 16 14 14 14 13 13 13 12 11 12 11 11 11
13 13 14 13 13 13 13 13 13 13 13 12 12 12 12 13 15 15 15 15 15 15 15 15 14 14 14 14 15 14 14 14 15 14 14 13 13 13 13 11 10 11 11 10 9
12 13 12 13 13 13 13 12 12 13 13 12 13 11 12 13 15 15 15 15 15 15 14 14 14 13 13 13 13 13 12 12 13 14 13 12 11 11 12 12 10 10 10 10 8
11 12 12 12 13 13 13 12 12 13 12 13 12 11 11 15 15 15 15 15 15 15 14 14 13 13 13 12 13 13 13 11 13 12 11 12 10 11 11 11 10 10 10 9 8
10 11 12 12 12 12 12 12 12 13 12 12 12 12 12 15 14 15 15 14 14 14 14 14 13 12 12 11 11 13 11 11 12 13 10 10 10 11 10 10 9 9 10 8 6
11 11 12 12 12 12 11 11 13 12 13 12 12 13 14 15 14 15 14 14 13 13 13 13 10 8 9 9 9 10 10 11 11 12 11 9 9 10 10 10 9 8 8 4 1
8 10 11 12 12 13 10 12 12 12 13 14 15 15 16 14 14 14 14 14 13 13 11 11 9 7 9 9 11 11 11 10 12 11 10 9 9 10 10 10 8 8 7 1 2
9 9 10 11 10 12 11 11 10 10 11 13 14 15 14 14 14 14 14 13 12 11 12 11 9 12 13 11 11 11 10 9 11 10 10 9 8 7 10 9 7 5 4 2 1
8 9 9 10 10 11 11 9 9 10 10 13 14 14 13 13 13 12 13 12 12 12 12 11 12 13 13 12 11 11 10 10 10 10 10 9 7 6 9 9 9 6 4 0 -1
9 9 9 10 10 11 9 8 9 10 11 13 13 13 13 14 13 13 13 12 12 12 13 13 13 13 12 12 10 10 10 10 9 8 7 10 7 8 8 6 8 6 2 -0 -1
9 9 9 9 9 8 7 8 9 9 8 13 13 13 13 13 12 11 12 12 11 12 12 12 12 12 12 11 11 9 9 9 9 7 8 8 6 7 8 6 8 5 2 -1 -2
9 9 9 9 8 7 8 8 9 11 11 12 12 11 11 10 11 12 12 11 11 11 11 11 12 11 10 10 10 9 9 8 8 7 5 5 7 6 4 2 4 2 0 -0 -1
9 9 9 8 7 7 8 9 10 10 12 12 12 11 11 11 13 12 9 9 7 8 7 11 10 10 10 9 9 9 7 6 9 8 6 5 7 5 5 6 -1 -2 -2 -2 -2
9 8 8 7 7 7 7 9 7 11 13 12 12 12 11 12 13 13 12 8 10 8 4 7 9 9 10 9 8 9 7 7 9 8 8 7 5 7 6 4 -3 -5 -6 -2 -2
9 9 8 8 7 7 8 7 11 12 13 12 12 11 13 12 10 11 12 10 9 6 7 6 10 9 8 9 8 8 6 7 5 4 5 7 7 7 6 4 0 -2 -4 -3 -3
8 9 7 7 8 8 8 9 10 11 11 11 10 10 11 11 10 9 10 8 7 8 8 7 5 9 8 8 7 8 7 7 5 6 6 9 7 5 3 1 -1 -3 -5 -4 -3
8 6 7 8 7 6 10 9 11 10 10 8 10 8 9 9 9 9 9 7 7 5 7 7 4 7 8 6 8 6 5 6 6 5 5 5 7 -1 -2 -6 -5 -5 -6 -5 -4
8 5 7 8 5 5 8 9 9 10 8 8 8 8 8 8 8 8 8 7 5 5 5 7 5 4 8 6 7 7 8 8 6 6 3 3 6 1 -3 -6 -8 -7 -6 -6 -4
6 6 7 7 5 6 8 9 9 8 8 7 7 7 6 7 8 9 8 5 4 5 4 5 4 4 6 6 6 6 7 5 4 2 3 4 6 3 1 -5 -7 -8 -6 -6 -4
6 6 5 4 5 7 7 7 8 7 7 7 7 7 6 7 7 8 7 5 4 4 5 6 4 5 8 7 5 5 5 6 5 3 2 4 3 4 3 -4 -6 -6 -7 -6 -5
6 6 8 6 5 6 6 6 7 7 5 6 6 6 7 7 5 7 6 5 4 4 5 3 4 5 6 7 7 7 5 4 3 5 5 2 1 1 -3 -6 -7 -9 -7 -6 -5
6 4 4 5 7 6 6 6 8 6 6 7 6 6 6 6 7 7 6 5 6 4 4 3 5 5 4 7 6 7 7 6 4 5 4 1 3 1 -3 -3 -7 -10 -7 -7 -7
8 8 7 6 5 5 6 6 7 6 5 7 6 5 6 6 4 4 4 3 4 4 4 3 4 4 5 8 3 6 4 5 3 1 3 4 5 1 1 1 -5 -7 -10 -8 -7

GFSSW_925_temp_315.txt.gz
Temp
14 13 13 13 14 13 13 14 14 14 14 14 14 14 13 14 14 14 13 15 15 14 14 15 16 15 16 14 14 11 11 10 14 16 16 16 16 14 13 14 13 10 10 11 12
12 13 13 13 13 13 13 13 13 13 13 13 13 13 13 13 13 12 15 15 15 14 15 14 14 14 13 14 13 12 9 12 14 16 15 15 15 15 14 13 13 9 9 9 10
11 11 13 13 13 13 13 13 13 13 13 13 13 13 13 14 12 15 16 16 15 14 15 14 14 14 14 14 13 11 12 13 15 15 15 15 15 13 13 12 11 10 8 8 8
10 10 11 13 13 13 13 13 13 13 12 12 12 12 13 14 15 16 16 15 14 14 15 14 14 14 14 14 14 13 13 14 15 15 14 14 14 13 11 13 12 10 8 7 7
10 10 10 11 12 12 12 13 13 13 12 12 12 12 13 12 13 15 15 15 15 15 15 14 14 13 14 13 13 12 13 14 14 13 13 13 12 12 12 11 9 8 8 8 7
11 12 12 12 12 12 12 12 13 13 12 12 12 12 12 11 15 15 15 15 15 15 14 13 13 13 12 12 13 11 12 11 12 13 12 12 12 11 12 10 9 8 8 7 7
10 10 12 12 12 13 13 12 12 13 12 12 12 11 10 11 15 15 15 15 14 14 13 13 13 13 12 12 11 12 11 11 12 12 12 12 11 10 11 9 9 8 8 8 6
9 10 8 9 10 11 12 12 12 12 12 12 11 11 10 14 14 14 15 14 14 14 14 13 13 12 12 11 11 11 11 10 12 12 11 12 10 11 10 9 8 8 8 8 6
8 9 8 9 9 11 12 12 12 12 11 11 11 11 11 14 14 15 14 14 14 13 13 13 12 10 11 10 9 9 9 10 10 11 11 10 10 11 9 9 8 8 7 7 5
8 9 9 9 9 10 10 11 11 10 11 11 11 11 12 14 14 14 14 14 13 12 12 11 7 8 7 8 8 10 9 9 9 11 10 9 8 9 9 8 8 7 6 2 0
9 9 9 10 10 9 11 12 10 10 11 12 12 12 14 14 14 13 13 13 12 11 10 10 8 7 9 8 10 11 9 8 8 10 10 8 7 9 8 7 6 6 4 -0 -0
9 9 9 10 10 11 11 10 7 7 9 11 11 12 14 14 13 13 13 12 11 10 10 9 8 9 10 10 9 9 9 8 8 9 9 7 7 6 8 7 5 2 2 -1 -0
9 9 9 10 10 10 9 7 8 8 9 11 13 13 13 13 13 12 12 12 11 10 9 9 11 11 10 11 10 9 8 8 9 8 8 7 7 3 7 5 5 4 2 -1 -3
9 9 9 10 10 9 8 8 8 8 9 11 12 13 13 12 12 12 12 12 11 11 12 9 11 11 11 10 9 9 9 9 8 7 5 8 6 8 7 4 6 5 2 -1 -2
9 9 9 9 8 7 8 8 8 8 6 12 12 13 12 12 10 11 11 11 11 11 11 11 11 11 11 11 10 9 9 8 8 6 6 7 3 6 7 6 7 5 2 -1 -3
9 9 9 9 8 7 8 8 8 6 6 12 12 12 11 10 11 11 11 11 11 10 10 9 11 11 10 9 9 9 8 7 6 5 2 4 5 7 4 3 5 3 -0 -2 -3
8 8 8 8 7 8 8 7 8 7 11 12 12 12 11 10 11 10 7 6 7 6 5 9 10 9 10 9 8 8 6 2 3 4 7 5 6 6 5 4 -1 -3 -4 -4 -4
8 8 8 8 8 8 8 7 8 9 11 11 12 11 10 11 11 10 10 8 8 8 4 6 9 9 9 9 8 8 6 2 6 5 8 7 5 7 6 3 -4 -7 -8 -4 -3
8 8 7 8 7 7 6 6 5 7 11 11 10 10 10 11 9 8 9 9 8 6 6 5 8 8 8 8 8 7 4 6 3 3 5 8 8 6 4 3 2 -3 -6 -5 -4
7 7 7 7 7 7 8 7 8 10 10 10 9 9 10 10 9 8 7 7 6 7 6 5 6 8 7 7 7 7 7 6 4 6 6 8 8 7 3 2 0 -3 -6 -6 -5
7 5 7 7 7 7 9 5 8 9 9 8 8 8 9 8 8 9 9 7 6 5 6 4 3 7 7 6 7 5 4 6 6 5 4 5 8 1 -2 -5 -4 -6 -7 -7 -6
5 5 7 7 6 5 6 7 9 9 9 7 8 8 8 8 7 7 8 8 5 5 4 6 1 2 6 6 6 7 7 7 6 4 1 1 6 0 -4 -7 -10 -7 -8 -7 -6
6 4 7 7 3 4 6 8 10 9 8 7 7 7 6 7 7 8 8 5 5 5 4 4 1 4 5 4 6 6 7 5 3 1 1 3 6 3 -0 -5 -8 -10 -8 -7 -5
5 6 4 4 3 4 4 4 7 7 7 7 7 7 7 6 6 6 7 5 5 5 6 5 2 5 7 6 4 4 5 6 4 2 -1 2 4 5 2 -4 -6 -7 -9 -7 -4
5 4 6 4 5 6 6 6 8 7 6 6 6 6 7 6 6 6 7 6 5 5 5 4 2 4 5 5 5 6 5 3 2 4 4 2 -0 0 -3 -6 -8 -11 -8 -5 -4
6 4 3 4 6 6 6 6 8 6 6 6 6 7 5 5 6 6 5 5 5 3 4 2 4 5 5 6 5 5 6 5 3 5 3 -0 3 -0 -5 -7 -6 -8 -8 -6 -4
7 6 5 5 3 5 6 6 7 6 5 7 6 5 5 5 4 3 3 3 4 3 3 3 3 4 5 5 4 5 4 5 3 1 3 4 4 -0 -0 -0 -5 -7 -8 -6 -5